| time (UTC) | temp F | wind direction | speed MPH | gust MPH | rain 1hr in | rain 24hr in | rain mn in | humidity % | barometer mb |
| 20260504033004 | 27 | 0 | 0.0 | 0.0 | 0.00 | 0.01 | 0.00 | 79 | 1016.6 |
| 20260504032005 | 27 | 0 | 0.0 | 0.0 | 0.00 | 0.01 | 0.00 | 79 | 1016.7 |
| 20260504030005 | 27 | 0 | 0.0 | 0.0 | 0.00 | 0.01 | 0.00 | 79 | 1016.8 |
| 20260504025004 | 28 | 0 | 0.0 | 0.0 | 0.00 | 0.01 | 0.00 | 76 | 1016.7 |
| 20260504024006 | 28 | 0 | 0.0 | 0.0 | 0.00 | 0.01 | 0.00 | 80 | 1017.0 |
| 20260504022004 | 28 | 0 | 0.0 | 0.0 | 0.00 | 0.01 | 0.00 | 88 | 1017.2 |
| 20260504021004 | 28 | 0 | 0.0 | 0.0 | 0.00 | 0.01 | 0.00 | 86 | 1017.1 |
| 20260504020004 | 28 | 0 | 0.0 | 0.0 | 0.00 | 0.01 | 0.00 | 87 | 1017.4 |
| 20260504015004 | 28 | 0 | 0.0 | 0.0 | 0.00 | 0.01 | 0.00 | 88 | 1017.3 |
| 20260504014004 | 28 | 0 | 0.0 | 0.0 | 0.00 | 0.01 | 0.00 | 89 | 1017.2 |
| 20260504013004 | 28 | 0 | 0.0 | 0.0 | 0.00 | 0.01 | 0.00 | 87 | 1017.3 |
| 20260504012004 | 28 | 0 | 0.0 | 0.0 | 0.00 | 0.01 | 0.00 | 86 | 1017.1 |
| 20260504011004 | 28 | 0 | 0.0 | 0.0 | 0.00 | 0.01 | 0.00 | 87 | 1017.2 |
| 20260504010004 | 28 | 0 | 0.0 | 0.0 | 0.00 | 0.01 | 0.00 | 84 | 1017.2 |
| 20260504005004 | 28 | 0 | 0.0 | 0.0 | 0.00 | 0.01 | 0.00 | 85 | 1017.2 |
| 20260504002004 | 27 | 0 | 0.0 | 0.0 | 0.00 | 0.01 | 0.00 | 77 | 1017.0 |
| 20260504001004 | 27 | 0 | 0.0 | 0.0 | 0.00 | 0.01 | 0.00 | 79 | 1017.2 |
| 20260504000005 | 27 | 0 | 0.0 | 0.0 | 0.00 | 0.01 | 0.00 | 79 | 1017.2 |
| 20260503235005 | 28 | 0 | 0.0 | 0.0 | 0.00 | 0.01 | 0.00 | 76 | 1017.2 |
| 20260503234005 | 28 | 0 | 0.0 | 0.0 | 0.00 | 0.01 | 0.00 | 73 | 1017.1 |
| 20260503232004 | 28 | 0 | 0.0 | 0.0 | 0.00 | 0.01 | 0.00 | 80 | 1017.2 |
| 20260503231004 | 27 | 0 | 0.0 | 0.0 | 0.00 | 0.01 | 0.00 | 83 | 1017.3 |
| 20260503230004 | 27 | 0 | 0.0 | 0.0 | 0.00 | 0.01 | 0.00 | 84 | 1017.5 |
| 20260503225004 | 27 | 0 | 0.0 | 0.0 | 0.00 | 0.01 | 0.00 | 79 | 1017.3 |
| 20260503224004 | 28 | 0 | 0.0 | 0.0 | 0.00 | 0.01 | 0.00 | 79 | 1017.0 |
| 20260503222004 | 27 | 0 | 0.0 | 0.0 | 0.00 | 0.01 | 0.00 | 79 | 1016.8 |
| 20260503220007 | 27 | 0 | 0.0 | 0.0 | 0.00 | 0.01 | 0.00 | 82 | 1017.1 |
| 20260503215007 | 27 | 0 | 0.0 | 0.0 | 0.00 | 0.01 | 0.00 | 82 | 1016.8 |
| 20260503214007 | 27 | 0 | 0.0 | 0.0 | 0.00 | 0.01 | 0.00 | 82 | 1016.7 |
| 20260503213007 | 27 | 0 | 0.0 | 0.0 | 0.00 | 0.01 | 0.00 | 83 | 1016.7 |
| 20260503211007 | 27 | 0 | 0.0 | 0.0 | 0.00 | 0.01 | 0.00 | 85 | 1016.6 |
| 20260503210008 | 27 | 0 | 0.0 | 0.0 | 0.00 | 0.01 | 0.00 | 85 | 1016.6 |
| 20260503205008 | 27 | 0 | 0.0 | 0.0 | 0.00 | 0.01 | 0.01 | 85 | 1016.5 |
| 20260503204008 | 27 | 0 | 0.0 | 0.0 | 0.00 | 0.01 | 0.01 | 86 | 1016.7 |
| 20260503203007 | 27 | 0 | 0.0 | 0.0 | 0.00 | 0.01 | 0.01 | 88 | 1016.6 |
| 20260503202007 | 27 | 0 | 0.0 | 0.0 | 0.00 | 0.01 | 0.01 | 90 | 1016.5 |
| 20260503195007 | 26 | 0 | 0.0 | 0.0 | 0.00 | 0.01 | 0.01 | 92 | 1016.8 |
| 20260503194007 | 26 | 0 | 0.0 | 0.0 | 0.00 | 0.01 | 0.01 | 92 | 1016.8 |
| 20260503193007 | 26 | 0 | 0.0 | 0.0 | 0.00 | 0.01 | 0.01 | 92 | 1016.4 |
| 20260503192007 | 26 | 0 | 0.0 | 0.0 | 0.00 | 0.01 | 0.01 | 92 | 1016.7 |
| 20260503191007 | 26 | 0 | 0.0 | 0.0 | 0.00 | 0.01 | 0.01 | 92 | 1016.5 |
| 20260503190007 | 26 | 0 | 0.0 | 0.0 | 0.00 | 0.01 | 0.01 | 92 | 1016.3 |
| 20260503185007 | 26 | 0 | 0.0 | 0.0 | 0.00 | 0.01 | 0.01 | 92 | 1015.9 |
| 20260503184007 | 26 | 0 | 0.0 | 0.0 | 0.00 | 0.01 | 0.01 | 92 | 1015.8 |
| 20260503183007 | 26 | 0 | 0.0 | 0.0 | 0.00 | 0.01 | 0.01 | 92 | 1015.8 |
| 20260503182007 | 26 | 0 | 0.0 | 0.0 | 0.00 | 0.01 | 0.01 | 92 | 1015.3 |
| 20260503180007 | 26 | 0 | 0.0 | 0.0 | 0.00 | 0.01 | 0.01 | 92 | 1015.4 |
| 20260503174007 | 25 | 0 | 0.0 | 0.0 | 0.00 | 0.01 | 0.01 | 92 | 1015.5 |
| 20260503173007 | 25 | 0 | 0.0 | 0.0 | 0.00 | 0.01 | 0.01 | 92 | 1015.5 |
| 20260503172007 | 26 | 0 | 0.0 | 0.0 | 0.00 | 0.01 | 0.01 | 92 | 1015.8 |
| 20260503151008 | 27 | 0 | 0.0 | 0.0 | 0.00 | 0.01 | 0.01 | 92 | 1014.1 |
| 20260503081007 | 27 | 0 | 0.0 | 0.0 | 0.00 | 0.00 | 0.00 | 93 | 1014.2 |
| 20260503072007 | 27 | 0 | 0.0 | 0.0 | 0.00 | 0.00 | 0.00 | 93 | 1014.4 |
| 20260503071007 | 27 | 0 | 0.0 | 0.0 | 0.00 | 0.00 | 0.00 | 93 | 1013.8 |
| 20260503055007 | 28 | 0 | 0.0 | 0.0 | 0.00 | 0.00 | 0.00 | 93 | 1013.9 |
| 20260503054007 | 28 | 0 | 0.0 | 0.0 | 0.00 | 0.00 | 0.00 | 93 | 1014.1 |
| 20260503053007 | 27 | 0 | 0.0 | 0.0 | 0.00 | 0.00 | 0.00 | 93 | 1014.0 |
| 20260503052007 | 27 | 0 | 0.0 | 0.0 | 0.00 | 0.00 | 0.00 | 93 | 1014.2 |
| 20260503050007 | 27 | 0 | 0.0 | 0.0 | 0.00 | 0.00 | 0.00 | 93 | 1014.0 |
| 20260503045007 | 27 | 0 | 0.0 | 0.0 | 0.00 | 0.00 | 0.00 | 93 | 1013.6 |
| 20260503044007 | 27 | 0 | 0.0 | 0.0 | 0.00 | 0.00 | 0.00 | 93 | 1013.8 |
| 20260503042006 | 27 | 0 | 0.0 | 0.0 | 0.00 | 0.00 | 0.00 | 93 | 1013.6 |
| 20260503041007 | 27 | 0 | 0.0 | 0.0 | 0.00 | 0.00 | 0.00 | 93 | 1013.6 |
| 20260503040007 | 27 | 0 | 0.0 | 0.0 | 0.00 | 0.00 | 0.00 | 93 | 1013.7 |
| 20260503035007 | 27 | 0 | 0.0 | 0.0 | 0.00 | 0.00 | 0.00 | 93 | 1014.1 |
| 20260503034007 | 27 | 0 | 0.0 | 0.0 | 0.00 | 0.00 | 0.00 | 93 | 1014.1 |